Home   Weather   Longyearbyen   Past weeks

Flag for Norway Past Weather in Longyearbyen, Svalbard, Norway — Yesterday and Last 2 Weeks

Now
3 °F

Partly sunny.


Feels Like: -8 °F
Forecast: 4 / 9 °F
Wind: 6 mph from Northeast

Location: Svalbard Lufthavn

Current Time: Dec 8, 2016 at 9:14:28 am

Latest Report: Dec 8, 2016 at 8:20 am


Visibility: N/A

Pressure: 29.50 "Hg

Humidity: 66%

Dew Point: -6 °F

Location of LongyearbyenLocation

Past Weather in Longyearbyen — Graph

°F

Longyearbyen Temperature Yesterday

Maximum temperature yesterday: 7 °F (at 12:50 am)
Minimum temperature yesterday: 3 °F (at 12:50 pm)
Average temperature yesterday: 5 °F

High & Low Weather Summary for the Past Weeks

 TemperatureHumidityPressure
High30 °F (Nov 23, 9:50 pm)93% (Nov 25, 6:50 am)30.12 "Hg (Nov 25, 6:50 am)
Low1 °F (Dec 6, 7:20 am)45% (Nov 26, 4:50 am)29.45 "Hg (Dec 4, 1:50 pm)
Average19 °F66%29.85 "Hg
* Reported Nov 23 7:50 am — Dec 8 7:50 am, Longyearbyen, Weather by CustomWeather, © 2016

Note: Actual official high and low records may vary slightly from our data, if they occured in-between our weather recording intervals... More about our weather records

Advertising

Longyearbyen Weather History for the Previous 24 Hours

Scroll right to see more
 ConditionsComfort  
Time TempWeatherWind HumidityBarometerVisibility
7:50 am
Thu, Dec 8
3 °FPartly sunny.5 mph55%29.50 "HgN/A
6:50 am3 °FPartly sunny.9 mph60%29.50 "HgN/A
5:50 am3 °FPassing clouds.7 mph60%29.53 "HgN/A
4:50 am3 °FPassing clouds.9 mph66%29.56 "HgN/A
3:50 am3 °FPassing clouds.12 mph60%29.56 "HgN/A
3:20 am3 °FPassing clouds.14 mph55%29.56 "HgN/A
2:50 am3 °FPassing clouds.15 mph55%29.59 "HgN/A
2:20 am3 °FPassing clouds.15 mph50%29.59 "HgN/A
1:50 am3 °FPartly cloudy.15 mph55%29.59 "HgN/A
1:20 am5 °FPartly cloudy.13 mph55%29.62 "HgN/A
12:50 am5 °FBroken clouds.9 mph60%29.59 "HgN/A
12:20 am5 °FPartly sunny.9 mph55%29.62 "HgN/A
11:50 pm
Wed, Dec 7
5 °FPassing clouds.13 mph55%29.62 "HgN/A
11:20 pm5 °FPartly cloudy.10 mph66%29.65 "HgN/A
10:50 pm5 °FLight snow. Passing clouds.6 mph60%29.65 "HgN/A
10:20 pm3 °FLight snow. Passing clouds.7 mph66%29.65 "HgN/A
9:50 pm5 °FPassing clouds.7 mph60%29.65 "HgN/A
8:50 pm5 °FPassing clouds.5 mph66%29.65 "HgN/A
8:20 pm5 °FPassing clouds.6 mph66%29.65 "HgN/A
7:50 pm5 °FPassing clouds.6 mph66%29.68 "HgN/A
6:50 pm5 °FPartly sunny.6 mph60%29.68 "HgN/A
5:50 pm5 °FLight snow. Partly sunny.9 mph66%29.71 "HgN/A
4:50 pm5 °FPartly sunny.8 mph60%29.71 "HgN/A
3:50 pm3 °FLight snow. Partly sunny.8 mph66%29.71 "HgN/A
2:50 pm3 °FScattered clouds.No wind60%29.71 "HgN/A
2:20 pm3 °FScattered clouds.6 mph55%29.71 "HgN/A
1:50 pm3 °FPassing clouds.7 mph55%29.71 "HgN/A
1:20 pm3 °FScattered clouds.3 mph60%29.74 "HgN/A
12:50 pm3 °FPartly sunny.6 mph60%29.74 "HgN/A
12:20 pm5 °FPartly sunny.8 mph55%29.74 "HgN/A
11:50 am5 °FLight snow. Partly sunny.7 mph55%29.74 "HgN/A
11:20 am5 °FLight snow. Partly sunny.8 mph60%29.74 "HgN/A
10:50 am5 °FLight snow. Partly sunny.6 mph60%29.74 "HgN/A
10:20 am5 °FLight snow. Partly sunny.7 mph55%29.74 "HgN/A
9:50 am5 °FLight snow. Partly sunny.10 mph55%29.74 "HgN/A
9:20 am5 °FLight snow. Partly sunny.10 mph55%29.77 "HgN/A
Weather by CustomWeather, © 2016

See weather overviewHow to use our weather pages